Time,TemperatureF,DewpointF,PressureIn,WindDirection,WindDirectionDegrees,WindSpeedMPH,WindSpeedGustMPH,Humidity,HourlyPrecipIn,Conditions,Clouds,dailyrainin,SoftwareType,DateUTC
2013-12-15 00:00:00,27.2,20.0,30.24,WNW,291,0.0,-999.0,75,-99.99,,,0.11,weatherlink.com 1.10,2013-12-15 06:00:00,
2013-12-15 00:15:00,27.2,20.0,30.24,WNW,296,5.0,-999.0,75,-99.99,,,0.11,weatherlink.com 1.10,2013-12-15 06:15:00,
2013-12-15 00:30:00,27.2,20.0,30.24,WNW,294,1.0,-999.0,75,-99.99,,,0.11,weatherlink.com 1.10,2013-12-15 06:30:00,
2013-12-15 00:45:00,27.2,21.0,30.24,WNW,298,13.0,-999.0,76,-99.99,,,0.11,weatherlink.com 1.10,2013-12-15 06:45:00,
2013-12-15 01:00:00,27.1,21.0,30.24,WNW,293,0.0,-999.0,77,-99.99,,,0.11,weatherlink.com 1.10,2013-12-15 07:00:00,
2013-12-15 01:15:00,27.1,21.0,30.23,West,269,5.0,-999.0,77,-99.99,,,0.11,weatherlink.com 1.10,2013-12-15 07:15:00,
2013-12-15 01:30:00,26.8,21.0,30.23,West,270,1.0,-999.0,77,-99.99,,,0.11,weatherlink.com 1.10,2013-12-15 07:30:00,
2013-12-15 01:45:00,26.5,20.0,30.22,WNW,292,12.0,-999.0,76,-99.99,,,0.11,weatherlink.com 1.10,2013-12-15 07:45:00,
2013-12-15 02:00:00,26.3,20.0,30.23,West,278,8.0,-999.0,77,-99.99,,,0.11,weatherlink.com 1.10,2013-12-15 08:00:00,
2013-12-15 02:15:00,26.1,20.0,30.23,WNW,294,7.0,-999.0,77,-99.99,,,0.11,weatherlink.com 1.10,2013-12-15 08:15:00,
2013-12-15 02:30:00,26.1,20.0,30.23,WNW,286,15.0,-999.0,77,-99.99,,,0.11,weatherlink.com 1.10,2013-12-15 08:30:00,
2013-12-15 02:45:00,26.2,20.0,30.23,WNW,284,6.0,-999.0,78,-99.99,,,0.11,weatherlink.com 1.10,2013-12-15 08:45:00,
2013-12-15 03:00:00,26.2,20.0,30.24,NW,319,11.0,-999.0,78,-99.99,,,0.11,weatherlink.com 1.10,2013-12-15 09:00:00,
2013-12-15 03:15:00,26.1,20.0,30.24,WNW,282,18.0,-999.0,79,-99.99,,,0.11,weatherlink.com 1.10,2013-12-15 09:15:00,
2013-12-15 03:30:00,26.0,20.0,30.23,WNW,298,9.0,-999.0,79,-99.99,,,0.11,weatherlink.com 1.10,2013-12-15 09:30:00,
2013-12-15 03:45:00,25.9,21.0,30.24,WNW,298,15.0,-999.0,80,-99.99,,,0.11,weatherlink.com 1.10,2013-12-15 09:45:00,
2013-12-15 04:00:00,25.7,20.0,30.24,West,263,13.0,-999.0,80,-99.99,,,0.11,weatherlink.com 1.10,2013-12-15 10:00:00,
2013-12-15 04:15:00,25.7,21.0,30.24,West,263,4.0,-999.0,81,-99.99,,,0.11,weatherlink.com 1.10,2013-12-15 10:15:00,
2013-12-15 04:30:00,25.6,20.0,30.25,WNW,292,8.0,-999.0,80,-99.99,,,0.11,weatherlink.com 1.10,2013-12-15 10:30:00,
2013-12-15 04:45:00,25.5,20.0,30.25,West,273,13.0,-999.0,80,-99.99,,,0.11,weatherlink.com 1.10,2013-12-15 10:45:00,
2013-12-15 05:00:00,25.2,20.0,30.25,WNW,282,5.0,-999.0,80,-99.99,,,0.11,weatherlink.com 1.10,2013-12-15 11:00:00,
2013-12-15 05:15:00,25.3,20.0,30.26,West,276,15.0,-999.0,81,-99.99,,,0.11,weatherlink.com 1.10,2013-12-15 11:15:00,
2013-12-15 05:30:00,25.6,21.0,30.26,West,265,10.0,-999.0,82,-99.99,,,0.11,weatherlink.com 1.10,2013-12-15 11:30:00,
2013-12-15 05:45:00,25.5,21.0,30.26,West,264,12.0,-999.0,82,-99.99,,,0.11,weatherlink.com 1.10,2013-12-15 11:45:00,
2013-12-15 06:00:00,25.5,21.0,30.27,West,264,12.0,-999.0,82,-99.99,,,0.11,weatherlink.com 1.10,2013-12-15 12:00:00,
2013-12-15 06:15:00,25.4,21.0,30.27,West,263,6.0,-999.0,82,-99.99,,,0.11,weatherlink.com 1.10,2013-12-15 12:15:00,
2013-12-15 06:30:00,25.6,21.0,30.27,West,270,9.0,-999.0,82,-99.99,,,0.11,weatherlink.com 1.10,2013-12-15 12:30:00,
2013-12-15 06:45:00,25.9,21.0,30.28,West,275,11.0,-999.0,82,-99.99,,,0.11,weatherlink.com 1.10,2013-12-15 12:45:00,
2013-12-15 07:00:00,25.8,21.0,30.28,West,276,5.0,-999.0,82,-99.99,,,0.11,weatherlink.com 1.10,2013-12-15 13:00:00,
2013-12-15 07:15:00,25.8,21.0,30.29,West,273,9.0,-999.0,82,-99.99,,,0.11,weatherlink.com 1.10,2013-12-15 13:15:00,
2013-12-15 07:30:00,26.2,21.0,30.29,West,280,9.0,-999.0,82,-99.99,,,0.11,weatherlink.com 1.10,2013-12-15 13:30:00,
2013-12-15 07:45:00,26.7,22.0,30.29,West,281,5.0,-999.0,82,-99.99,,,0.11,weatherlink.com 1.10,2013-12-15 13:45:00,
2013-12-15 08:00:00,27.1,22.0,30.30,WNW,286,5.0,-999.0,82,-99.99,,,0.11,weatherlink.com 1.10,2013-12-15 14:00:00,
2013-12-15 08:15:00,27.5,22.0,30.31,WNW,284,11.0,-999.0,81,-99.99,,,0.11,weatherlink.com 1.10,2013-12-15 14:15:00,
2013-12-15 08:30:00,28.0,23.0,30.31,West,277,9.0,-999.0,81,-99.99,,,0.00,weatherlink.com 1.10,2013-12-15 14:30:00,
2013-12-15 08:45:00,28.2,23.0,30.32,WSW,254,4.0,-999.0,80,-99.99,,,0.00,weatherlink.com 1.10,2013-12-15 14:45:00,
2013-12-15 09:00:00,29.2,24.0,30.32,WSW,254,0.0,-999.0,80,-99.99,,,0.00,weatherlink.com 1.10,2013-12-15 15:00:00,
2013-12-15 09:15:00,30.2,24.0,30.32,WSW,256,3.0,-999.0,79,-99.99,,,0.00,weatherlink.com 1.10,2013-12-15 15:15:00,
2013-12-15 09:30:00,31.5,26.0,30.33,WSW,257,0.0,-999.0,79,-99.99,,,0.00,weatherlink.com 1.10,2013-12-15 15:30:00,
2013-12-15 09:45:00,32.6,26.0,30.33,WSW,257,0.0,-999.0,77,-99.99,,,0.00,weatherlink.com 1.10,2013-12-15 15:45:00,
2013-12-15 10:00:00,33.7,27.0,30.33,WSW,257,0.0,-999.0,76,-99.99,,,0.00,weatherlink.com 1.10,2013-12-15 16:00:00,
2013-12-15 10:15:00,34.7,27.0,30.33,WSW,257,0.0,-999.0,74,-99.99,,,0.01,weatherlink.com 1.10,2013-12-15 16:15:00,
2013-12-15 10:30:00,35.4,28.0,30.34,WSW,257,0.0,-999.0,75,-99.99,,,0.01,weatherlink.com 1.10,2013-12-15 16:30:00,
2013-12-15 10:45:00,36.9,29.0,30.33,WSW,257,0.0,-999.0,72,-99.99,,,0.02,weatherlink.com 1.10,2013-12-15 16:45:00,
2013-12-15 11:01:00,37.5,29.0,30.32,WSW,257,0.0,-999.0,72,-99.99,,,0.02,weatherlink.com 1.10,2013-12-15 17:01:00,
2013-12-15 11:16:00,38.0,30.0,30.32,WSW,257,0.0,-999.0,72,-99.99,,,0.03,weatherlink.com 1.10,2013-12-15 17:16:00,
2013-12-15 11:31:00,38.4,30.0,30.31,WSW,257,0.0,-999.0,72,-99.99,,,0.03,weatherlink.com 1.10,2013-12-15 17:31:00,
2013-12-15 11:45:00,39.1,30.0,30.31,WSW,257,0.0,-999.0,70,-99.99,,,0.04,weatherlink.com 1.10,2013-12-15 17:45:00,
2013-12-15 12:01:00,39.6,30.0,30.30,WSW,257,0.0,-999.0,69,-99.99,,,0.04,weatherlink.com 1.10,2013-12-15 18:01:00,
2013-12-15 12:16:00,40.1,31.0,30.30,WSW,257,0.0,-999.0,69,-99.99,,,0.05,weatherlink.com 1.10,2013-12-15 18:16:00,
2013-12-15 12:31:00,40.5,31.0,30.29,WSW,257,0.0,-999.0,68,-99.99,,,0.05,weatherlink.com 1.10,2013-12-15 18:31:00,
2013-12-15 12:46:00,40.9,31.0,30.29,WSW,256,0.0,-999.0,67,-99.99,,,0.05,weatherlink.com 1.10,2013-12-15 18:46:00,
2013-12-15 13:01:00,41.5,32.0,30.28,WSW,252,5.0,-999.0,68,-99.99,,,0.06,weatherlink.com 1.10,2013-12-15 19:01:00,
2013-12-15 13:16:00,42.4,32.0,30.28,WSW,252,0.0,-999.0,67,-99.99,,,0.06,weatherlink.com 1.10,2013-12-15 19:16:00,
2013-12-15 13:31:00,43.0,33.0,30.27,WSW,252,0.0,-999.0,68,-99.99,,,0.06,weatherlink.com 1.10,2013-12-15 19:31:00,
2013-12-15 13:46:00,42.9,33.0,30.27,WSW,252,0.0,-999.0,67,-99.99,,,0.07,weatherlink.com 1.10,2013-12-15 19:46:00,
2013-12-15 14:01:00,43.4,33.0,30.26,WSW,248,0.0,-999.0,66,-99.99,,,0.07,weatherlink.com 1.10,2013-12-15 20:01:00,
2013-12-15 14:16:00,43.8,33.0,30.26,WSW,248,2.0,-999.0,66,-99.99,,,0.07,weatherlink.com 1.10,2013-12-15 20:16:00,
2013-12-15 14:31:00,43.6,33.0,30.26,WSW,247,5.0,-999.0,67,-99.99,,,0.07,weatherlink.com 1.10,2013-12-15 20:31:00,
2013-12-15 14:46:00,43.6,33.0,30.25,WSW,240,2.0,-999.0,67,-99.99,,,0.08,weatherlink.com 1.10,2013-12-15 20:46:00,
2013-12-15 15:01:00,43.9,33.0,30.25,SW,230,0.0,-999.0,65,-99.99,,,0.08,weatherlink.com 1.10,2013-12-15 21:01:00,
2013-12-15 15:16:00,44.0,32.0,30.24,SW,230,0.0,-999.0,64,-99.99,,,0.08,weatherlink.com 1.10,2013-12-15 21:16:00,
2013-12-15 15:31:00,44.0,32.0,30.24,SW,234,1.0,-999.0,64,-99.99,,,0.08,weatherlink.com 1.10,2013-12-15 21:31:00,
2013-12-15 15:46:00,43.6,32.0,30.25,SW,234,0.0,-999.0,64,-99.99,,,0.08,weatherlink.com 1.10,2013-12-15 21:46:00,
2013-12-15 16:01:00,42.9,32.0,30.25,SW,233,0.0,-999.0,65,-99.99,,,0.08,weatherlink.com 1.10,2013-12-15 22:01:00,
2013-12-15 16:16:00,42.8,32.0,30.25,SW,233,0.0,-999.0,66,-99.99,,,0.08,weatherlink.com 1.10,2013-12-15 22:16:00,
2013-12-15 16:31:00,42.6,32.0,30.25,SW,233,0.0,-999.0,67,-99.99,,,0.08,weatherlink.com 1.10,2013-12-15 22:31:00,
2013-12-15 16:46:00,42.1,31.0,30.25,SW,233,0.0,-999.0,66,-99.99,,,0.08,weatherlink.com 1.10,2013-12-15 22:46:00,
2013-12-15 17:01:00,41.5,31.0,30.25,SW,234,0.0,-999.0,67,-99.99,,,0.08,weatherlink.com 1.10,2013-12-15 23:01:00,
2013-12-15 17:16:00,41.0,31.0,30.25,SW,234,0.0,-999.0,68,-99.99,,,0.08,weatherlink.com 1.10,2013-12-15 23:16:00,
2013-12-15 17:31:00,40.4,31.0,30.24,WSW,242,4.0,-999.0,70,-99.99,,,0.08,weatherlink.com 1.10,2013-12-15 23:31:00,
2013-12-15 17:46:00,40.6,31.0,30.24,WSW,247,0.0,-999.0,68,-99.99,,,0.09,weatherlink.com 1.10,2013-12-15 23:46:00,
2013-12-15 18:01:00,40.5,31.0,30.24,WSW,248,0.0,-999.0,69,-99.99,,,0.09,weatherlink.com 1.10,2013-12-16 00:01:00,
2013-12-15 18:16:00,40.3,31.0,30.23,WSW,243,3.0,-999.0,69,-99.99,,,0.09,weatherlink.com 1.10,2013-12-16 00:16:00,
2013-12-15 18:31:00,40.6,31.0,30.23,WSW,240,4.0,-999.0,69,-99.99,,,0.09,weatherlink.com 1.10,2013-12-16 00:31:00,
2013-12-15 18:46:00,40.7,31.0,30.23,West,260,0.0,-999.0,69,-99.99,,,0.09,weatherlink.com 1.10,2013-12-16 00:46:00,
2013-12-15 19:01:00,40.4,31.0,30.23,WSW,238,0.0,-999.0,69,-99.99,,,0.09,weatherlink.com 1.10,2013-12-16 01:01:00,
2013-12-15 19:16:00,40.6,31.0,30.24,WSW,239,2.0,-999.0,68,-99.99,,,0.09,weatherlink.com 1.10,2013-12-16 01:16:00,
2013-12-15 19:31:00,40.7,31.0,30.24,WSW,243,1.0,-999.0,68,-99.99,,,0.09,weatherlink.com 1.10,2013-12-16 01:31:00,
2013-12-15 19:46:00,40.8,31.0,30.25,WSW,241,1.0,-999.0,68,-99.99,,,0.09,weatherlink.com 1.10,2013-12-16 01:46:00,
2013-12-15 20:01:00,40.8,31.0,30.24,WSW,239,0.0,-999.0,68,-99.99,,,0.09,weatherlink.com 1.10,2013-12-16 02:01:00,
2013-12-15 20:16:00,41.0,31.0,30.24,SW,227,0.0,-999.0,68,-99.99,,,0.09,weatherlink.com 1.10,2013-12-16 02:16:00,
2013-12-15 20:31:00,41.8,31.0,30.24,SW,233,3.0,-999.0,66,-99.99,,,0.09,weatherlink.com 1.10,2013-12-16 02:31:00,
2013-12-15 20:46:00,41.8,31.0,30.23,WSW,239,1.0,-999.0,66,-99.99,,,0.09,weatherlink.com 1.10,2013-12-16 02:46:00,
2013-12-15 21:01:00,42.0,31.0,30.23,WSW,247,3.0,-999.0,66,-99.99,,,0.09,weatherlink.com 1.10,2013-12-16 03:01:00,
2013-12-15 21:16:00,41.8,32.0,30.22,SW,235,6.0,-999.0,67,-99.99,,,0.09,weatherlink.com 1.10,2013-12-16 03:16:00,
2013-12-15 21:31:00,41.3,31.0,30.22,WSW,243,7.0,-999.0,67,-99.99,,,0.09,weatherlink.com 1.10,2013-12-16 03:31:00,
2013-12-15 21:46:00,40.8,31.0,30.22,SW,231,3.0,-999.0,69,-99.99,,,0.09,weatherlink.com 1.10,2013-12-16 03:46:00,
2013-12-15 22:01:00,40.6,32.0,30.22,WSW,240,6.0,-999.0,70,-99.99,,,0.09,weatherlink.com 1.10,2013-12-16 04:01:00,
2013-12-15 22:16:00,40.5,31.0,30.23,West,261,2.0,-999.0,70,-99.99,,,0.09,weatherlink.com 1.10,2013-12-16 04:16:00,
2013-12-15 22:31:00,40.2,31.0,30.22,SW,216,1.0,-999.0,71,-99.99,,,0.09,weatherlink.com 1.10,2013-12-16 04:31:00,
2013-12-15 22:46:00,40.2,31.0,30.22,SW,227,5.0,-999.0,71,-99.99,,,0.09,weatherlink.com 1.10,2013-12-16 04:46:00,
2013-12-15 23:01:00,40.2,31.0,30.22,WSW,254,0.0,-999.0,71,-99.99,,,0.09,weatherlink.com 1.10,2013-12-16 05:01:00,
2013-12-15 23:16:00,39.9,32.0,30.22,SW,225,2.0,-999.0,72,-99.99,,,0.09,weatherlink.com 1.10,2013-12-16 05:16:00,
2013-12-15 23:31:00,39.7,31.0,30.21,SSW,213,2.0,-999.0,72,-99.99,,,0.09,weatherlink.com 1.10,2013-12-16 05:31:00,
2013-12-15 23:46:00,39.7,31.0,30.21,WSW,253,3.0,-999.0,72,-99.99,,,0.09,weatherlink.com 1.10,2013-12-16 05:46:00,